Wind_Speed
9 8 7 7 6 5 4 4 3 3 3 2 2 2 1 1 1 1 1 1 1 1 1 1 1 1 1 1 2 2 3 3 4 4 4 4 4 4 4 4 5 5 5
9 8 8 7 6 5 5 5 4 4 3 3 2 2 2 1 1 1 1 1 1 1 1 1 1 1 1 2 2 2 3 3 3 4 4 4 4 5 5 5 6 6 6
10 9 8 8 7 6 5 5 5 5 4 4 3 2 2 2 1 2 1 1 1 1 1 1 1 1 0 1 1 2 2 2 3 3 4 4 5 5 5 6 6 7 8
11 10 9 9 8 7 6 6 5 5 5 5 4 3 3 3 2 2 2 1 1 1 1 1 1 0 0 0 1 1 1 1 2 2 3 4 4 5 5 5 6 7 8
11 11 10 9 9 8 7 7 6 6 6 6 6 5 4 4 3 3 2 2 2 2 2 1 1 1 1 1 1 2 1 1 1 2 3 3 4 4 5 5 6 6 7
13 12 11 10 10 9 8 8 7 7 6 7 7 6 5 4 4 3 3 3 3 3 2 2 1 1 1 1 1 1 2 2 1 1 2 2 2 3 4 4 5 6 7
15 14 13 11 10 10 9 9 8 7 7 7 7 7 6 5 4 4 4 4 4 3 3 2 2 1 0 0 1 1 1 1 1 1 1 2 2 3 3 4 5 5 6
17 16 14 13 12 11 11 10 9 9 8 8 8 8 8 6 6 6 6 5 5 4 4 3 3 2 1 1 1 0 0 1 1 1 2 2 3 3 4 4 5 5 6
18 17 16 15 14 12 12 11 11 10 10 9 9 9 9 8 7 6 6 6 6 6 5 5 4 3 3 2 2 1 1 1 2 2 3 3 4 4 4 5 5 6 6
19 18 17 16 15 14 13 13 12 12 11 11 10 10 10 9 8 7 7 7 7 7 6 6 5 4 4 3 3 3 3 3 3 3 4 4 5 5 6 6 7 7 8
19 19 18 18 17 16 15 14 13 13 13 12 11 11 11 10 9 9 8 7 7 7 7 7 7 6 6 5 5 5 5 5 5 5 6 6 6 7 8 8 8 9 9
20 20 19 19 18 17 16 15 14 14 14 13 12 12 12 11 11 10 9 9 8 8 8 8 8 8 8 7 7 7 7 7 7 7 8 8 8 9 9 10 10 11 11
21 21 20 20 19 18 17 16 15 15 15 14 14 13 13 12 12 11 10 9 8 8 8 8 9 9 9 10 10 10 10 10 10 10 10 10 11 11 12 13 13 13 14
21 22 22 22 20 19 18 17 17 16 16 15 15 15 14 14 13 12 11 10 10 9 9 9 10 10 10 11 12 12 12 12 13 13 13 14 14 14 15 15 16 16 17
21 22 22 22 21 20 19 18 18 17 16 16 16 16 16 15 14 14 13 12 11 11 10 11 11 12 12 13 14 15 15 15 16 16 16 17 17 18 18 18 19 19 19
21 22 23 22 21 20 19 19 18 18 18 17 17 17 17 16 16 16 16 15 14 14 14 14 14 14 15 16 17 17 18 18 19 19 19 20 20 21 21 21 21 22 22
21 21 22 22 21 20 20 20 20 19 19 19 18 18 19 18 18 18 18 17 16 17 17 17 18 18 18 19 20 20 20 21 22 22 23 23 23 23 24 24 24 25 25
21 21 21 21 21 20 20 20 20 20 19 19 19 19 20 20 19 20 20 19 19 19 20 20 21 21 22 22 23 23 24 24 25 25 26 26 26 26 27 27 27 28 28
21 21 22 21 21 20 20 20 20 20 20 20 20 20 20 21 21 22 22 22 22 22 22 22 23 24 25 25 26 26 26 27 27 28 28 29 29 29 29 30 30 31 31
21 21 22 22 21 21 20 20 20 20 20 21 21 22 22 23 23 24 24 24 25 25 25 26 26 27 27 27 28 28 29 30 30 31 31 31 32 33 33 34 34 34 35
20 21 22 22 21 20 19 20 21 21 21 22 23 24 25 25 26 26 26 27 27 28 28 28 29 30 30 31 31 31 32 32 33 34 34 35 36 36 37 37 38 38 38
18 20 20 21 20 20 20 20 20 21 23 24 25 25 26 26 27 28 28 29 30 30 30 31 31 32 33 34 34 34 35 34 35 37 38 38 40 40 41 41 41 41 41
18 18 19 20 20 21 22 22 22 23 24 24 25 25 26 27 28 28 30 31 32 32 33 33 34 35 35 37 37 38 38 39 38 40 41 41 42 43 43 43 43 44 45
17 18 19 20 21 22 23 23 24 24 25 25 25 26 27 28 28 29 31 32 33 34 35 36 36 37 38 39 40 41 41 42 42 43 45 44 44 45 46 46 47 47 48
18 19 20 21 22 23 24 24 25 26 26 26 27 28 28 29 30 32 32 33 34 35 36 37 37 38 40 41 42 44 44 45 45 45 48 49 48 48 48 48 49 50 50
18 20 22 23 24 25 26 26 27 28 28 29 30 31 31 32 32 33 34 35 36 37 38 38 39 40 42 43 45 46 47 48 48 47 49 51 51 52 50 48 49 51 52
Wind_Direction
237 238 245 248 251 250 242 243 228 221 209 201 183 183 172 173 182 183 175 199 208 210 215 225 231 227 229 259 277 272 269 263 263 259 263 269 269 263 262 259 258 263 263
232 234 239 241 243 242 240 238 228 219 210 208 209 201 188 173 168 171 170 155 167 188 200 217 222 204 235 264 278 288 279 267 267 264 262 262 267 265 263 264 260 261 262
224 228 232 233 235 237 235 228 223 214 209 202 206 203 205 218 210 196 177 169 161 166 176 193 194 192 266 296 297 301 295 277 273 266 263 261 264 267 268 271 266 262 262
220 224 227 228 233 230 226 224 221 217 209 206 211 216 221 224 220 212 194 188 173 159 163 176 182 177 31 8 9 349 324 295 287 277 269 265 265 270 274 276 274 270 268
217 220 225 228 230 229 226 226 223 220 217 215 215 215 219 229 234 218 203 198 186 172 163 162 146 112 97 68 44 38 40 11 321 303 292 281 275 277 278 274 276 275 273
218 220 224 227 225 226 226 224 225 226 225 221 218 216 219 226 231 226 218 210 197 188 188 185 153 121 94 52 36 31 33 24 360 329 323 317 302 292 292 288 283 278 274
218 219 223 224 222 222 220 220 223 222 223 220 220 222 224 226 229 226 224 219 206 198 187 181 173 163 135 83 58 37 30 21 23 8 346 328 316 310 305 302 293 286 283
217 219 221 222 221 220 220 221 223 223 224 224 226 226 226 225 222 221 219 220 217 211 203 203 206 209 221 225 239 273 3 354 332 324 318 317 315 311 307 303 297 289 286
219 219 219 220 220 220 221 223 225 224 225 229 232 230 226 224 222 219 218 216 215 217 218 219 221 226 224 223 227 252 289 303 306 305 302 301 301 300 299 299 297 293 289
216 216 219 220 221 222 224 225 227 227 228 230 233 227 223 223 220 217 217 215 216 219 220 224 225 228 232 237 244 257 267 280 290 296 298 296 293 291 290 290 291 291 290
214 217 219 219 220 221 223 225 226 228 229 231 231 226 222 219 221 222 219 218 221 225 228 231 232 235 237 242 249 258 265 275 284 290 293 292 291 289 288 287 287 287 288
216 217 219 220 221 223 225 226 226 228 230 232 229 228 227 223 224 225 224 223 225 230 233 235 238 243 248 253 258 262 267 274 281 286 289 290 290 290 290 289 288 286 286
218 219 220 221 222 224 225 225 227 231 233 231 230 229 226 223 226 227 229 231 236 241 243 243 247 251 255 259 263 266 270 275 279 281 284 286 288 289 289 287 286 286 285
218 220 221 220 221 223 224 226 229 232 232 230 230 230 228 226 228 231 232 235 243 249 254 255 256 258 261 265 269 272 274 276 279 280 282 284 285 286 287 286 284 283 283
219 218 219 219 221 224 226 229 231 231 230 231 231 231 232 233 234 235 236 241 246 250 256 262 264 267 269 271 272 273 275 278 280 282 282 283 284 284 284 284 284 282 281
217 216 215 218 221 223 226 228 229 230 229 231 232 234 236 237 239 241 244 245 249 253 257 262 266 270 272 274 275 275 276 277 279 280 282 283 284 284 284 284 283 282 281
215 215 216 219 223 226 227 229 231 232 233 234 235 237 239 241 245 247 249 250 253 258 262 266 269 271 274 275 276 277 277 278 279 280 282 282 283 283 283 283 283 282 281
212 215 217 220 222 225 229 231 232 233 234 238 240 242 244 246 249 252 253 255 258 262 266 270 272 273 275 276 277 278 279 280 280 281 281 282 282 282 283 283 283 283 282
212 215 217 221 224 227 230 232 231 234 237 240 243 245 247 250 253 256 257 261 263 266 269 272 274 276 277 277 278 279 279 280 281 281 281 281 281 282 283 283 283 282 281
216 219 221 225 228 231 233 234 235 236 240 244 248 250 252 255 258 261 262 265 267 269 270 272 275 277 278 278 278 279 280 281 281 281 281 281 282 283 283 282 282 281 281
220 224 225 229 232 233 234 237 240 242 245 248 251 253 255 259 262 263 265 267 270 271 272 273 275 278 279 280 280 281 281 281 281 281 280 281 281 282 282 282 282 282 281
224 226 225 230 234 236 237 240 244 246 248 250 252 255 257 260 262 264 267 269 271 272 274 275 276 278 279 280 281 281 281 280 280 280 280 281 281 282 282 281 281 281 280
226 227 228 232 236 239 242 245 248 251 253 254 255 257 259 261 263 266 268 271 272 274 275 276 277 278 278 279 280 280 280 280 279 278 279 280 281 281 280 280 279 279 279
232 232 235 238 240 243 245 249 251 254 256 258 260 260 260 262 265 267 270 273 275 277 278 278 279 279 279 280 281 282 281 281 280 280 280 280 281 280 279 279 278 278 278
239 241 243 243 245 248 249 251 255 257 258 259 261 262 264 265 267 269 272 274 277 278 279 280 280 279 280 280 281 282 283 282 281 281 281 281 281 280 280 280 279 279 279
247 248 249 248 248 250 252 255 257 258 260 261 262 264 266 269 272 273 274 276 277 278 279 280 280 280 280 281 282 283 282 282 282 281 280 281 281 281 281 280 280 279 279
Height
5894 5895 5896 5896 5896 5896 5897 5897 5897 5897 5897 5897 5898 5898 5898 5898 5898 5899 5899 5899 5898 5898 5898 5898 5898 5898 5898 5898 5898 5898 5898 5898 5898 5898 5898 5897 5897 5897 5897 5897 5897 5897 5897
5892 5894 5894 5895 5895 5896 5896 5896 5897 5897 5897 5897 5898 5898 5898 5898 5898 5899 5899 5898 5898 5898 5898 5898 5898 5898 5898 5897 5897 5897 5897 5897 5896 5896 5896 5896 5896 5896 5896 5896 5896 5896 5896
5890 5892 5893 5894 5894 5895 5895 5895 5896 5896 5897 5897 5898 5898 5898 5898 5898 5898 5898 5898 5898 5898 5898 5898 5897 5897 5897 5897 5896 5896 5896 5896 5895 5895 5895 5895 5895 5895 5895 5895 5894 5894 5894
5889 5890 5891 5892 5893 5894 5894 5895 5895 5896 5896 5897 5897 5898 5898 5898 5898 5898 5898 5898 5898 5898 5898 5898 5897 5897 5897 5896 5896 5895 5895 5895 5895 5894 5894 5894 5894 5894 5893 5893 5893 5893 5893
5886 5888 5890 5891 5892 5892 5893 5894 5895 5895 5896 5896 5897 5897 5897 5897 5897 5898 5898 5898 5898 5898 5898 5898 5897 5897 5897 5896 5896 5895 5895 5894 5894 5894 5893 5893 5893 5892 5892 5892 5892 5891 5891
5884 5886 5888 5889 5890 5891 5892 5892 5893 5894 5894 5895 5896 5896 5897 5897 5897 5897 5897 5897 5897 5897 5897 5897 5897 5897 5896 5896 5895 5895 5895 5894 5894 5893 5893 5892 5892 5891 5891 5891 5890 5890 5890
5881 5883 5885 5887 5888 5889 5890 5891 5891 5892 5893 5894 5895 5895 5896 5896 5896 5896 5896 5897 5897 5897 5897 5897 5897 5897 5896 5896 5895 5895 5894 5894 5894 5893 5892 5892 5891 5891 5890 5890 5889 5889 5888
5879 5881 5883 5884 5886 5887 5888 5889 5890 5891 5892 5893 5894 5894 5895 5896 5895 5896 5896 5896 5896 5896 5896 5896 5896 5896 5896 5895 5895 5894 5894 5894 5893 5893 5892 5892 5891 5890 5889 5889 5888 5887 5887
5876 5878 5880 5882 5883 5885 5886 5887 5888 5890 5891 5892 5892 5893 5894 5894 5894 5895 5895 5895 5895 5895 5895 5895 5895 5895 5895 5895 5894 5894 5894 5893 5893 5892 5891 5891 5890 5889 5888 5888 5887 5886 5885
5872 5875 5876 5879 5881 5882 5883 5885 5886 5887 5889 5890 5890 5891 5892 5893 5893 5894 5894 5894 5894 5895 5895 5894 5894 5894 5894 5894 5893 5893 5893 5892 5892 5891 5890 5889 5889 5888 5887 5886 5885 5884 5883
5869 5871 5874 5875 5877 5879 5881 5882 5883 5885 5886 5887 5888 5889 5890 5891 5891 5892 5893 5893 5893 5893 5893 5893 5893 5893 5893 5892 5892 5892 5891 5891 5890 5890 5889 5888 5887 5886 5885 5884 5883 5882 5881
5865 5868 5870 5872 5874 5876 5877 5879 5880 5882 5883 5885 5886 5887 5888 5888 5889 5890 5890 5891 5891 5892 5892 5892 5892 5891 5891 5891 5890 5890 5889 5889 5888 5887 5887 5886 5885 5884 5883 5882 5881 5880 5878
5861 5864 5866 5868 5870 5872 5874 5876 5877 5879 5880 5882 5883 5884 5885 5886 5887 5888 5888 5889 5889 5889 5889 5889 5889 5889 5889 5889 5888 5887 5887 5886 5885 5885 5884 5883 5882 5881 5880 5879 5877 5876 5875
5857 5860 5862 5865 5867 5868 5870 5872 5874 5875 5877 5878 5880 5881 5882 5883 5884 5885 5886 5886 5887 5887 5887 5886 5886 5886 5886 5886 5885 5884 5884 5883 5882 5881 5880 5879 5878 5877 5876 5875 5873 5872 5871
5853 5855 5858 5861 5863 5865 5867 5869 5870 5872 5873 5875 5876 5877 5879 5880 5881 5882 5883 5884 5884 5884 5884 5883 5883 5883 5882 5882 5881 5881 5880 5879 5878 5877 5876 5875 5874 5873 5871 5870 5869 5867 5866
5849 5852 5855 5857 5859 5861 5863 5865 5866 5868 5870 5871 5873 5874 5875 5876 5877 5878 5879 5880 5880 5881 5880 5880 5880 5879 5879 5878 5877 5876 5875 5874 5873 5872 5871 5870 5868 5867 5866 5864 5863 5861 5860
5845 5848 5851 5854 5856 5857 5859 5861 5862 5864 5866 5867 5869 5870 5871 5872 5873 5874 5875 5875 5876 5876 5876 5876 5875 5875 5874 5873 5872 5871 5870 5869 5868 5866 5865 5864 5862 5861 5859 5857 5856 5855 5853
5842 5845 5847 5850 5852 5853 5855 5857 5858 5860 5862 5863 5865 5866 5867 5868 5869 5870 5870 5871 5871 5871 5871 5870 5870 5869 5868 5867 5866 5865 5864 5863 5861 5860 5858 5856 5855 5853 5852 5850 5849 5847 5845
5839 5841 5844 5846 5848 5849 5851 5853 5854 5856 5857 5859 5860 5861 5862 5863 5864 5865 5865 5865 5865 5865 5865 5864 5864 5863 5862 5860 5859 5858 5857 5855 5854 5852 5850 5849 5847 5845 5844 5842 5840 5838 5837
5836 5838 5840 5842 5844 5845 5847 5848 5850 5851 5853 5854 5856 5857 5857 5858 5859 5859 5859 5859 5859 5859 5858 5857 5857 5855 5854 5853 5852 5850 5849 5847 5846 5844 5842 5840 5839 5837 5835 5833 5831 5829 5827
5833 5834 5836 5838 5840 5841 5843 5844 5846 5847 5848 5850 5850 5851 5852 5852 5852 5852 5852 5852 5852 5851 5850 5850 5849 5847 5846 5844 5843 5842 5840 5839 5837 5834 5833 5831 5829 5827 5824 5822 5820 5818 5816
5829 5830 5832 5834 5835 5837 5838 5840 5841 5842 5843 5843 5844 5845 5845 5845 5845 5845 5845 5845 5844 5843 5842 5841 5840 5839 5837 5835 5833 5832 5830 5829 5828 5825 5822 5821 5818 5816 5813 5811 5809 5806 5804
5825 5826 5828 5830 5831 5832 5834 5835 5836 5837 5838 5838 5838 5838 5838 5838 5838 5838 5837 5837 5836 5835 5834 5832 5831 5829 5827 5825 5823 5821 5819 5818 5817 5814 5811 5810 5807 5804 5802 5799 5797 5795 5792
5821 5823 5824 5825 5826 5827 5828 5829 5830 5831 5831 5832 5831 5831 5831 5831 5830 5830 5829 5828 5827 5826 5824 5822 5821 5819 5816 5814 5812 5810 5808 5806 5804 5802 5798 5797 5795 5791 5789 5786 5784 5781 5778
5817 5818 5819 5820 5821 5822 5823 5823 5824 5824 5825 5825 5824 5824 5823 5823 5822 5821 5821 5820 5818 5816 5814 5812 5810 5808 5805 5803 5800 5798 5795 5793 5791 5789 5784 5782 5780 5777 5775 5773 5769 5766 5763
5812 5813 5814 5814 5815 5816 5816 5817 5817 5817 5817 5817 5816 5816 5815 5814 5813 5811 5810 5809 5808 5805 5803 5801 5799 5797 5794 5791 5788 5785 5782 5779 5777 5775 5771 5767 5764 5761 5760 5758 5755 5751 5747